NOAA 16 DEB

Satellite information

Favourite Embed

Satellite Type and Status

DEBRISIN ORBIT

Key statistics

Satellite NOAA 16 DEB at a glance.

Uptime

8999

Days in orbit

Revolutions

≈ 14.4

Per day

Orbit

SSO

Sun Synchronous Orbit

Inclination

99.1

Latest

Satellite identification and parameters

Extended collection of information and parameters for NOAA 16 DEB.

Object identification

Identified? True

Debris? True

Object name: NOAA 16 DEB

International designator: 2000-055HT

Object number (NORAD): 41350

Object ID (CCSDS): 41350

Country: UNITED STATES OF AMERICA (US)

Current information (Y/N): Y

RCS size: SMALL

Orbital parameters

Period: 99.674 minutes

Inclination: 99.0554 deg

SMA: 7121.135 km

Apoapsis: 755.715 km

Periapsis: 730.285 km

RAAN: 319.1615 deg

Eccentricy: 0.0017855

Argument of periapsis: 259.8651 deg

Mean anomaly: 100.0524 deg

Mean motion: 14.44704153 rev/day

Mean motion (dot): 0.00009827 rev/day2

B* drag term: 0.0028386 1/REarth

Two-line elements (TLE)

Creation date: May 10, 2025, 10:16 p.m.

Reference frame: TEME

Reference center: EARTH

Epoch: May 9, 2025, 7:39 a.m. UTC

TLE line 0: 0 NOAA 16 DEB

TLE line 1: 1 41350U 00055HT 25129.31934594 .00009827 00000-0 28386-2 0 9995

TLE line 2: 2 41350 99.0554 319.1615 0017855 259.8651 100.0524 14.44704153481654

Live tracking on map

Real-time ground track for satellite NOAA 16 DEB.

In-orbit conjunctions

A list of the most updated potential collisions computed for object NOAA 16 DEB.

Target Orbit TCA Probability of collision Miss distance Type
COSMOS 2251 DEB LEO 2024-11-12 13:26:12 0.0001194515 333.0 (m) DEBRIS
COSMOS 2251 DEB LEO 2024-11-12 11:46:04 0.000390853 320.0 (m) DEBRIS
FENGYUN 1C DEB SSO 2024-07-11 06:10:06 0.0002010019 161.0 (m) DEBRIS

Associated space launch

The NOAA K, L and M POES satellites begin the fifth generation of improved environmental monitoring in support of NOAA missions. The instrument payload has significant improvements and additions/deletions. The instrument changes have effected the spacecraft subsystems and data formats.

NOAA 16 DEB was lifted into orbit during the mission ‘Titan II SLV | NOAA 16’, on board a Titan II SLV space rocket.

The launch took place on Sept. 21, 2000, 10:22 a.m. from Space Launch Complex 4W.

For more information about the launch, click the button.

Launch to space Titan II SLV | NOAA 16
Titan II SLV | NOAA 16

Agency: N/A

Status: Launch Successful

Launch date: Sept. 21, 2000, 10:22 a.m. UTC

Rocket: Titan II SLV

Launch pad: Space Launch Complex 4W

Location: Vandenberg SFB, CA, USA

...

Latest news about this satellite

There are no fresh news available about this satellite. Check back as we update our databases every day.


Newsletter sign-up

Weekly statistics, charts and insights to help you stay on top of the space industry.